DW5868 Weather Reports


time (UTC)temp
F
wind
direction
speed
knots
gust
knots
rain 1hr
in
rain 24hr
in
rain mn
in
humidity
%
barometer
mb
20260508024508 55 325 4.3 12.2 0.00 0.00 0.00 58 1011.8
20260508023002 56 227 5.2 13.0 0.00 0.00 0.00 58 1011.9
20260508021501 57 230 3.5 11.3 0.00 0.00 0.00 56 1011.7
20260508014503 60 255 3.5 10.4 0.00 0.00 0.00 50 1011.6
20260508013100 61 261 4.3 10.4 0.00 0.00 0.00 47 1011.7
20260508011559 61 244 3.5 11.3 0.00 0.00 0.00 48 1011.7
20260508010157 62 199 1.7 10.4 0.00 0.00 0.00 47 1011.8
20260508004558 62 244 5.2 12.2 0.00 0.00 0.00 44 1011.9
20260508003104 62 227 3.5 13.0 0.00 0.00 0.00 43 1012.0
20260508001600 62 87 5.2 14.8 0.00 0.00 0.00 42 1012.0
20260508000155 63 210 4.3 12.2 0.00 0.00 0.00 40 1012.1
20260507234554 64 202 5.2 10.4 0.00 0.00 0.00 37 1012.1
20260507233054 65 318 4.3 10.4 0.00 0.00 0.00 37 1012.1
20260507231553 64 245 3.5 13.0 0.00 0.00 0.00 37 1012.2
20260507230154 64 252 3.5 19.1 0.00 0.00 0.00 37 1012.4
20260507224552 65 300 2.6 13.0 0.00 0.00 0.00 36 1012.3
20260507223138 65 194 4.3 17.4 0.00 0.00 0.00 35 1012.7
20260507221548 66 171 2.6 15.6 0.00 0.00 0.00 33 1012.9
20260507220148 66 308 4.3 13.9 0.00 0.00 0.00 30 1013.2
20260507214554 65 270 4.3 13.9 0.00 0.00 0.00 31 1013.4
20260507213046 65 114 5.2 16.5 0.00 0.00 0.00 30 1013.7
20260507211547 65 252 1.7 18.2 0.00 0.00 0.00 31 1013.8
20260507210142 66 171 1.7 11.3 0.00 0.00 0.00 31 1013.9
20260507204543 64 249 4.3 11.3 0.00 0.00 0.00 30 1014.1
20260507203042 66 232 6.1 16.5 0.00 0.00 0.00 27 1014.4
20260507201541 65 218 3.5 13.0 0.00 0.00 0.00 27 1014.4
20260507200137 64 219 5.2 15.6 0.00 0.00 0.00 26 1014.5
20260507194538 65 267 6.1 17.4 0.00 0.00 0.00 23 1014.5
20260507193044 65 107 0.9 10.4 0.00 0.00 0.00 24 1014.6
20260507191536 66 219 4.3 8.7 0.00 0.00 0.00 22 1014.8
20260507190137 64 202 2.6 10.4 0.00 0.00 0.00 21 1014.9
20260507184534 64 268 3.5 20.9 0.00 0.00 0.00 19 1015.1
20260507183039 64 246 5.2 12.2 0.00 0.00 0.00 18 1015.1
20260507181535 65 206 0.9 7.0 0.00 0.00 0.00 18 1015.1
20260507180131 65 298 1.7 6.1 0.00 0.00 0.00 20 1015.2
20260507174532 64 260 1.7 12.2 0.00 0.00 0.00 23 1015.3
20260507173028 63 263 2.6 7.8 0.00 0.00 0.00 24 1015.2
20260507171524 61 200 1.7 11.3 0.00 0.00 0.00 25 1015.3
20260507170124 61 180 2.6 13.9 0.00 0.00 0.00 24 1015.4
20260507164525 60 203 4.3 13.0 0.00 0.00 0.00 22 1015.4
20260507163026 61 172 3.5 17.4 0.00 0.00 0.00 21 1015.5
20260507161528 59 263 3.5 9.6 0.00 0.00 0.00 22 1015.5
20260507160120 58 128 0.9 3.5 0.00 0.00 0.00 27 1015.5
20260507154516 58 22 0.0 2.6 0.00 0.00 0.00 29 1015.6
20260507153013 56 71 0.0 3.5 0.00 0.00 0.00 30 1015.7
20260507151512 56 103 0.0 0.9 0.00 0.00 0.00 33 1015.7
20260507150110 54 58 0.0 0.0 0.00 0.00 0.00 31 1015.8
20260507144515 54 57 0.0 0.0 0.00 0.00 0.00 33 1015.8
20260507143009 52 225 0.0 0.0 0.00 0.00 0.00 45 1015.7
20260507141505 49 279 0.0 0.0 0.00 0.00 0.00 42 1015.5
20260507134600 41 279 0.0 0.0 0.00 0.00 0.00 46 1015.1
20260507133053 0 0.0 0.0 0.00 0.00 0.00 1014.7
20260507131547 0 0.0 0.0 0.00 0.00 0.00 1014.8
20260507130057 0 0.0 0.0 0.00 0.00 0.00 1015.1
20260507124549 0 0.0 0.0 0.00 0.00 0.00 1015.4
20260507123041 0 0.0 0.0 0.00 0.00 0.00 1015.8
20260507121531 37 275 0.0 0.0 0.00 0.00 0.00 65 1016.1
20260507120035 38 277 0.0 0.0 0.00 0.00 0.00 62 1016.3
20260507114528 37 280 0.0 0.9 0.00 0.00 0.00 64 1016.3
20260507113026 37 287 0.0 0.0 0.00 0.00 0.00 65 1016.4
20260507111526 37 264 0.0 0.0 0.00 0.00 0.00 66 1016.5
20260507110027 37 281 0.0 0.9 0.00 0.00 0.00 65 1016.7
20260507104524 36 280 0.0 0.0 0.00 0.00 0.00 68 1016.6
20260507103023 36 284 0.0 0.9 0.00 0.00 0.00 70 1016.7
20260507101533 36 270 0.0 0.9 0.00 0.00 0.00 70 1016.7
20260507100023 36 277 0.0 0.0 0.00 0.00 0.00 70 1016.9
20260507094519 37 279 0.0 0.0 0.00 0.00 0.00 69 1017.0
20260507093019 36 283 0.0 0.0 0.00 0.00 0.00 71 1017.1
20260507091519 37 279 0.0 0.0 0.00 0.00 0.00 68 1017.2
20260507090018 37 279 0.0 0.0 0.00 0.00 0.00 68 1017.2
20260507084516 37 283 0.0 0.0 0.00 0.00 0.00 69 1017.1
20260507083014 37 277 0.0 0.0 0.00 0.00 0.00 69 1017.2
20260507081517 38 279 0.0 0.0 0.00 0.00 0.00 68 1017.3
20260507080013 38 275 0.0 0.9 0.00 0.00 0.00 68 1017.4
20260507074510 38 283 0.0 0.9 0.00 0.00 0.00 67 1017.5
20260507073009 39 277 0.0 0.9 0.00 0.00 0.00 64 1017.5
20260507071511 40 276 0.0 0.0 0.00 0.00 0.00 63 1017.5
20260507070012 39 279 0.0 0.9 0.00 0.00 0.00 66 1017.6
20260507064510 40 282 0.0 0.9 0.00 0.00 0.00 66 1017.7
20260507063010 39 281 0.0 0.9 0.00 0.00 0.00 68 1017.5
20260507061509 40 277 0.0 0.9 0.00 0.00 0.00 67 1017.5
20260507060017 40 277 0.0 0.9 0.00 0.00 0.00 67 1017.4
20260507054509 40 279 0.9 1.7 0.00 0.00 0.00 68 1017.4
20260507053009 40 280 0.0 0.9 0.00 0.00 0.00 66 1017.4
20260507051509 41 279 0.0 0.0 0.00 0.00 0.00 66 1017.3
20260507050009 41 280 0.0 1.7 0.00 0.00 0.00 66 1017.1
20260507044506 42 279 0.9 1.7 0.00 0.00 0.00 64 1017.0
20260507043006 43 284 0.0 0.9 0.00 0.00 0.00 63 1016.8
20260507041518 44 282 0.0 0.9 0.00 0.00 0.00 60 1016.6
20260507040006 45 275 0.0 0.0 0.00 0.00 0.00 57 1016.4
20260507034505 46 275 0.0 0.9 0.00 0.00 0.00 59 1016.3
20260507033004 47 282 0.0 0.9 0.00 0.00 0.00 54 1016.1
20260507031503 49 282 0.0 1.7 0.00 0.00 0.00 53 1015.9
20260507030004 51 275 0.0 0.9 0.00 0.00 0.00 48 1015.6